Location: Unspecified
(43.4680°N, 87.1740°E)
Time: 20:14:27
(UTC+00:00)

Cosmos 2360 Rocket - Pass Details

Date: 17 April 2021
Orbit: 833 x 845 km, 71.0° (Epoch: 11 May)

Event Time Altitude Azimuth Distance (km) Brightness Sun altitude
Rises 14:02:07 0° 331° (NNW) 3,411 6.4 -11.8°
Reaches altitude 10° 14:04:36 10° 328° (NNW) 2,471 5.6 -12.2°
Maximum altitude 14:10:09 58° 251° (WSW) 976 2.8 -13.1°
Drops below altitude 10° 14:15:38 10° 173° (S) 2,447 4.3 -14.0°
Enters shadow 14:16:44 - 171° (S) 2,857 4.6 -14.2°
